DW5735 Weather Reports


Display with metric or nautical units.
time (UTC)temp
F
wind
direction
speed
MPH
gust
MPH
rain 1hr
in
rain 24hr
in
rain mn
in
humidity
%
barometer
mb
20260904172322 55 48 0.0 0.0 0.00 0.24 0.00 83 1014.3
20260904171834 55 49 0.0 0.0 0.00 0.24 0.00 83 1014.3
20260904171607 54 57 0.0 0.0 0.00 0.06 0.00 84 1014.0
20260904171318 55 43 0.0 0.0 0.00 0.24 0.00 84 1014.2
20260904170817 54 30 0.0 0.0 0.00 0.24 0.00 85 1014.3
20260904170322 54 109 0.0 0.0 0.00 0.24 0.00 86 1014.2
20260904170115 54 87 0.0 0.0 0.00 0.06 0.00 85 1014.0
20260904165826 54 39 0.0 0.0 0.00 0.35 0.00 85 1014.1
20260904165354 54 77 0.0 0.0 0.00 0.35 0.00 86 1014.1
20260904164824 54 61 0.0 0.0 0.00 0.35 0.00 86 1014.1
20260904164321 54 27 0.0 0.0 0.00 0.35 0.00 86 1014.2
20260904163818 54 81 0.0 1.0 0.00 0.35 0.00 86 1014.1
20260904163329 53 78 0.0 1.0 0.00 0.35 0.00 86 1014.1
20260904163142 53 71 0.0 1.0 0.00 0.09 0.00 86 1013.8
20260904162852 53 84 0.0 0.0 0.00 0.35 0.00 86 1014.1
20260904162317 53 31 0.0 0.0 0.00 0.35 0.00 87 1014.1
20260904161837 53 77 0.0 0.0 0.00 0.35 0.00 87 1014.0
20260904161613 53 39 0.0 0.0 0.00 0.09 0.00 87 1013.8
20260904161324 53 66 0.0 0.0 0.00 0.35 0.00 87 1014.1
20260904160818 53 37 0.0 0.0 0.00 0.35 0.00 87 1014.1
20260904160327 53 48 0.0 0.0 0.00 0.35 0.00 87 1014.0
20260904160100 53 37 0.0 0.0 0.00 0.09 0.00 87 1013.7
20260904155845 53 49 0.0 0.0 0.00 0.47 0.00 87 1013.9
20260904155358 53 46 0.0 0.0 0.00 0.47 0.00 87 1013.7
20260904154834 54 34 0.0 0.0 0.00 0.47 0.00 87 1013.7
20260904154615 53 49 0.0 0.0 0.00 0.12 0.00 87 1013.5
20260904154318 53 121 0.0 0.0 0.00 0.47 0.00 86 1013.7
20260904153831 53 107 0.0 0.0 0.00 0.47 0.00 87 1013.7
20260904153329 53 77 0.0 0.0 0.00 0.47 0.00 87 1013.6
20260904153139 52 77 0.0 0.0 0.00 0.12 0.00 87 1013.3
20260904152830 53 91 0.0 0.0 0.00 0.47 0.00 87 1013.5
20260904152333 53 91 0.0 0.0 0.00 0.47 0.00 88 1013.4
20260904151911 52 34 0.0 0.0 0.00 0.47 0.00 88 1013.3
20260904151601 52 34 0.0 0.0 0.00 0.12 0.00 88 1013.1
20260904151329 52 34 0.0 0.0 0.00 0.47 0.00 88 1013.3
20260904150829 52 34 0.0 0.0 0.00 0.47 0.00 89 1013.3
20260904150334 52 54 0.0 0.0 0.00 0.47 0.00 88 1013.3
20260904150055 52 68 0.0 0.0 0.00 0.12 0.00 88 1013.0
20260904145828 52 31 0.0 0.0 0.00 0.51 0.00 88 1013.2
20260904144858 52 56 0.0 0.0 0.00 0.51 0.00 88 1013.2
20260904144614 52 62 0.0 0.0 0.00 0.13 0.00 88 1012.9
20260904144357 52 30 0.0 0.0 0.00 0.51 0.00 89 1013.1
20260904143838 52 30 0.0 0.0 0.00 0.51 0.00 90 1013.0
20260904143327 52 26 0.0 0.0 0.00 0.51 0.00 90 1013.0
20260904142841 52 40 0.0 0.0 0.00 0.51 0.00 89 1013.1
20260904142320 52 56 0.0 0.0 0.00 0.51 0.00 88 1013.0
20260904141827 52 40 0.0 0.0 0.00 0.51 0.00 89 1013.0
20260904141620 51 51 0.0 0.0 0.00 0.13 0.00 89 1012.7
20260904141327 52 37 0.0 1.0 0.00 0.51 0.00 89 1012.8
20260904140826 52 46 0.0 1.0 0.00 0.51 0.00 90 1012.7
20260904140323 52 43 0.0 0.0 0.00 0.51 0.00 90 1012.6
20260904135838 51 47 0.0 0.0 0.00 0.55 0.00 89 1012.5
20260904135319 51 34 0.0 0.0 0.00 0.55 0.00 90 1012.5
20260904134819 51 46 0.0 0.0 0.00 0.55 0.00 90 1012.4
20260904134608 51 40 0.0 0.0 0.00 0.14 0.00 90 1012.2
20260904134343 51 32 0.0 0.0 0.00 0.55 0.00 90 1012.4
20260904133829 51 37 0.0 0.0 0.00 0.55 0.00 90 1012.4
20260904133321 51 56 0.0 0.0 0.00 0.55 0.00 90 1012.4
20260904133110 51 53 0.0 0.0 0.00 0.14 0.00 90 1012.2
20260904132818 51 75 0.0 0.0 0.00 0.55 0.00 90 1012.4
20260904132329 51 41 0.0 0.0 0.00 0.55 0.00 90 1012.4
20260904131827 51 96 0.0 0.0 0.00 0.55 0.00 90 1012.4
20260904131602 51 65 0.0 0.0 0.00 0.14 0.00 90 1012.2
20260904131358 51 48 0.0 0.0 0.00 0.55 0.00 90 1012.3
20260904130851 51 42 0.0 0.0 0.00 0.55 0.00 90 1012.3
20260904130335 51 71 0.0 0.0 0.00 0.55 0.00 91 1012.2
20260904130100 51 60 0.0 0.0 0.00 0.14 0.00 92 1011.9
20260904125831 51 36 0.0 0.0 0.00 0.59 0.00 92 1012.2
20260904125402 51 21 0.0 0.0 0.00 0.59 0.00 91 1012.1
20260904124830 51 105 0.0 0.0 0.00 0.59 0.00 91 1012.1
20260904124619 50 76 0.0 0.0 0.00 0.15 0.00 91 1011.9
20260904124341 51 72 0.0 0.0 0.00 0.59 0.00 91 1012.1
20260904123828 51 75 0.0 0.0 0.00 0.59 0.00 91 1012.2
20260904123327 51 101 0.0 0.0 0.00 0.59 0.00 91 1012.2
20260904123009 50 95 0.0 0.0 0.00 0.15 0.00 91 1012.0
20260904122832 51 107 0.0 0.0 0.00 0.59 0.00 91 1012.3
20260904122325 51 124 0.0 0.0 0.00 0.59 0.00 91 1012.4
20260904121819 51 104 0.0 0.0 0.00 0.59 0.00 91 1012.3
20260904121558 50 76 0.0 0.0 0.00 0.15 0.00 91 1012.0
20260904121316 51 38 0.0 0.0 0.00 0.59 0.00 91 1012.2
20260904120820 51 37 0.0 0.0 0.00 0.59 0.00 91 1012.2
20260904120331 51 77 0.0 0.0 0.00 0.59 0.00 91 1012.1
20260904120107 50 40 0.0 0.0 0.00 0.15 0.00 91 1011.7
20260904115838 51 43 0.0 0.0 0.00 0.75 0.00 91 1011.9
20260904115328 51 41 0.0 0.0 0.00 0.75 0.00 90 1011.8
20260904114816 51 56 0.0 0.0 0.00 0.75 0.00 90 1011.7
20260904114615 50 87 0.0 0.0 0.00 0.19 0.00 90 1011.5
20260904113833 51 80 0.0 0.0 0.00 0.75 0.00 91 1011.7
20260904113323 51 32 0.0 0.0 0.00 0.75 0.00 91 1011.7
20260904113118 51 99 0.0 0.0 0.00 0.19 0.00 91 1011.5
20260904112827 51 12 0.0 0.0 0.00 0.75 0.00 91 1011.7
20260904112345 51 38 0.0 0.0 0.00 0.75 0.00 92 1011.7
20260904111824 51 22 0.0 0.0 0.00 0.75 0.00 92 1011.6
20260904111607 50 49 0.0 0.0 0.00 0.19 0.00 92 1011.2
20260904111323 50 58 0.0 0.0 0.00 0.75 0.00 92 1011.6
20260904110829 50 60 0.0 0.0 0.00 0.75 0.00 92 1011.6
20260904110336 50 50 0.0 0.0 0.00 0.75 0.00 92 1011.5
20260904110100 50 54 0.0 0.0 0.00 0.19 0.00 92 1011.1
20260904105833 50 70 0.0 0.0 0.00 1.42 0.00 92 1011.5
20260904105322 50 60 0.0 0.0 0.00 1.42 0.00 92 1011.6
20260904104857 50 72 0.0 0.0 0.00 1.42 0.00 91 1011.5
20260904104613 50 76 0.0 0.0 0.00 0.36 0.00 91 1011.2
20260904104329 50 49 0.0 0.0 0.00 1.42 0.00 91 1011.6
20260904103819 50 63 0.0 0.0 0.00 1.42 0.00 91 1011.6
20260904103319 50 73 0.0 0.0 0.00 1.42 0.00 91 1011.5
20260904103007 50 79 0.0 0.0 0.00 0.36 0.00 91 1011.2
20260904102828 50 86 0.0 0.0 0.00 1.42 0.00 91 1011.5
20260904102356 50 75 0.0 0.0 0.00 1.42 0.00 91 1011.3
20260904101843 50 27 0.0 0.0 0.00 1.42 0.00 92 1011.3
20260904101505 49 77 0.0 0.0 0.00 0.36 0.00 91 1011.1
20260904101330 50 79 0.0 0.0 0.00 1.42 0.00 91 1011.4
20260904100825 50 73 0.0 0.0 0.00 1.42 0.00 91 1011.3
20260904100336 50 97 0.0 0.0 0.00 1.42 0.00 91 1011.3
20260904100124 49 98 0.0 0.0 0.00 0.36 0.00 91 1010.9
20260904095838 50 97 0.0 0.0 0.00 1.42 0.00 91 1011.2
20260904095317 50 97 0.0 0.0 0.00 1.42 0.00 91 1011.3
20260904094840 50 97 0.0 0.0 0.00 1.42 0.00 91 1011.3
20260904094610 50 97 0.0 0.0 0.00 0.36 0.00 91 1011.0
20260904094355 50 98 0.0 0.0 0.00 1.42 0.00 91 1011.4
20260904093822 50 97 0.0 0.0 0.00 1.42 0.00 91 1011.4
20260904093339 50 98 0.0 0.0 0.00 1.42 0.00 91 1011.3
20260904093001 50 97 0.0 0.0 0.00 0.36 0.00 91 1011.1
20260904092826 51 97 0.0 0.0 0.00 1.42 0.00 91 1011.4
20260904092317 51 93 0.0 0.0 0.00 1.42 0.00 91 1011.5
20260904091842 51 97 0.0 0.0 0.00 1.42 0.00 91 1011.4
20260904091600 50 94 0.0 0.0 0.00 0.36 0.00 91 1011.0
20260904091330 51 79 0.0 0.0 0.00 1.42 0.00 91 1011.4
20260904090820 51 91 0.0 0.0 0.00 1.42 0.00 91 1011.5
20260904090327 51 91 0.0 0.0 0.00 1.42 0.00 91 1011.4
20260904085318 51 88 0.0 0.0 0.00 1.42 0.00 91 1011.5
20260904084823 51 84 0.0 0.0 0.00 1.42 0.00 90 1011.6
20260904084625 50 84 0.0 0.0 0.00 0.36 0.00 90 1011.2
20260904084331 51 89 0.0 0.0 0.00 1.42 0.00 90 1011.6
20260904083847 51 100 0.0 0.0 0.00 1.42 0.00 91 1011.6
20260904083359 51 89 0.0 0.0 0.00 1.42 0.00 91 1011.5
20260904083059 51 89 0.0 0.0 0.00 0.36 0.00 90 1011.1
20260904082830 51 91 0.0 0.0 0.00 1.42 0.00 90 1011.5
20260904082334 51 97 0.0 0.0 0.00 1.42 0.00 90 1011.5
20260904081821 51 92 0.0 0.0 0.00 1.42 0.00 89 1011.6
20260904081511 51 91 0.0 0.0 0.00 0.36 0.00 90 1011.1
20260904081334 51 91 0.0 0.0 0.00 1.42 0.00 90 1011.5
20260904080817 51 91 0.0 0.0 0.00 1.42 0.00 89 1011.4
20260904080342 52 95 0.0 0.0 0.00 1.42 0.00 89 1011.3
20260904080122 51 96 0.0 0.0 0.00 0.36 0.00 89 1010.9
20260904075818 52 68 0.0 0.0 0.00 1.42 0.00 89 1011.3
20260904075326 52 72 0.0 0.0 0.00 1.42 0.00 89 1011.3
20260904074821 52 71 0.0 0.0 0.00 1.42 0.00 89 1011.2
20260904074612 52 71 0.0 0.0 0.00 0.36 0.00 89 1010.7
20260904074324 52 91 0.0 0.0 0.00 1.42 0.00 89 1011.2
20260904073901 52 92 0.0 0.0 0.00 1.42 0.00 89 1011.3
20260904073337 52 86 0.0 0.0 0.00 1.42 0.00 88 1011.3
20260904073054 52 84 0.0 0.0 0.00 0.36 0.00 88 1010.8
20260904072829 53 74 0.0 0.0 0.00 1.42 0.00 88 1011.3
20260904072337 53 72 0.0 0.0 0.00 1.42 0.00 88 1011.2
20260904071829 53 85 0.0 0.0 0.00 1.42 0.00 87 1011.0
20260904071623 52 63 0.0 0.0 0.00 0.36 0.00 87 1010.7
20260904071328 53 49 0.0 0.0 0.00 1.42 0.00 87 1011.0
20260904070834 53 61 0.0 0.0 0.00 1.42 0.00 87 1011.0
20260904070345 53 91 0.0 0.0 0.00 1.42 0.00 87 1011.0
20260904070115 53 91 0.0 0.0 0.00 0.36 0.00 87 1010.5
20260904065827 53 91 0.0 0.0 0.00 1.46 0.36 86 1011.0
20260904065349 53 90 0.0 0.0 0.00 1.46 0.36 86 1010.9
20260904064833 54 91 0.0 0.0 0.00 1.46 0.36 86 1010.8
20260904064332 54 91 0.0 0.0 0.00 1.46 0.36 85 1010.9
20260904063848 54 48 0.0 0.0 0.00 1.46 0.36 86 1010.9
20260904063321 54 60 0.0 0.0 0.00 1.46 0.36 86 1010.9
20260904063032 54 51 0.0 0.0 0.00 0.37 0.36 85 1010.5
20260904062836 54 56 0.0 0.0 0.00 1.46 0.36 85 1011.0
20260904062323 54 46 0.0 0.0 0.00 1.46 0.36 86 1010.9
20260904061833 54 91 0.0 0.0 0.00 1.46 0.36 85 1011.0
20260904061614 54 91 0.0 0.0 0.00 0.37 0.36 86 1010.5
20260904061352 54 16 0.0 0.0 0.00 1.46 0.36 86 1011.0
20260904060824 54 34 0.0 0.0 0.00 1.46 0.36 85 1010.9
20260904060334 54 91 0.0 0.0 0.00 1.46 0.36 85 1011.0
20260904060126 54 92 0.0 0.0 0.00 0.37 0.36 84 1010.4
20260904055821 54 92 0.0 0.0 0.00 1.46 0.36 84 1010.9
20260904055352 55 89 0.0 0.0 0.00 1.46 0.36 84 1010.9
20260904054817 55 108 0.0 0.0 0.00 1.46 0.36 84 1010.9
20260904054553 54 91 0.0 0.0 0.00 0.37 0.36 83 1010.5
20260904054347 55 74 0.0 0.0 0.00 1.46 0.36 83 1010.9
20260904053827 55 39 0.0 0.0 0.00 1.46 0.36 83 1011.0
20260904053354 55 76 0.0 0.0 0.00 1.46 0.36 83 1010.9
20260904053138 55 46 0.0 0.0 0.00 0.37 0.36 82 1010.5
20260904052817 55 91 0.0 0.0 0.00 1.46 0.36 82 1010.9
20260904052340 56 79 0.0 0.0 0.00 1.46 0.36 81 1010.9
20260904051826 56 78 0.0 0.0 0.00 1.46 0.36 80 1010.8
20260904051603 56 67 0.0 0.0 0.00 0.37 0.36 80 1010.3
20260904051337 56 40 0.0 0.0 0.00 1.46 0.36 80 1010.8
20260904050819 56 44 0.0 0.0 0.00 1.46 0.36 80 1010.8
20260904050327 56 66 0.0 0.0 0.00 1.46 0.36 80 1010.8
20260904050118 56 82 0.0 0.0 0.00 0.37 0.36 80 1010.3
20260904045847 56 97 0.0 0.0 0.00 1.46 0.36 79 1010.8
20260904045435 57 112 0.0 0.0 0.00 1.46 0.36 79 1010.8
20260904044905 57 83 0.0 0.0 0.00 1.46 0.36 78 1010.7
20260904044627 56 46 0.0 0.0 0.00 0.37 0.36 78 1010.3
20260904044334 57 95 0.0 0.0 0.00 1.46 0.36 78 1010.8
20260904043821 57 110 0.0 0.0 0.00 1.46 0.36 78 1010.8
20260904043334 57 84 0.0 0.0 0.00 1.46 0.36 79 1010.8
20260904043058 56 99 0.0 0.0 0.00 0.37 0.36 79 1010.3
20260904042833 57 113 0.0 0.0 0.00 1.46 0.36 79 1010.8
20260904042319 56 95 0.0 0.0 0.00 1.46 0.36 80 1010.7
20260904041848 57 109 0.0 0.0 0.00 1.46 0.36 80 1010.8
20260904041606 56 117 0.0 0.0 0.00 0.37 0.36 80 1010.2
20260904041318 57 105 0.0 0.0 0.00 1.46 0.36 80 1010.7
20260904040825 57 97 0.0 0.0 0.00 1.46 0.36 79 1010.7
20260904040338 57 96 0.0 0.0 0.00 1.46 0.36 78 1010.6
20260904040056 57 93 0.0 0.0 0.00 0.37 0.36 77 1010.2
20260904035829 57 82 0.0 0.0 0.00 1.46 0.36 77 1010.6
20260904035329 58 74 0.0 0.0 0.00 1.46 0.36 76 1010.6
20260904034816 58 96 0.0 0.0 0.00 1.46 0.36 75 1010.5
20260904034515 57 111 0.0 0.0 0.00 0.37 0.36 75 1010.0
20260904034340 58 91 0.0 0.0 0.00 1.46 0.36 74 1010.5
20260904033830 58 119 0.0 0.0 0.00 1.46 0.36 74 1010.5
20260904033339 58 95 0.0 0.0 0.00 1.46 0.36 75 1010.6
20260904033058 58 105 0.0 0.0 0.00 0.37 0.36 75 1010.0
20260904032826 58 91 0.0 0.0 0.00 1.46 0.36 75 1010.6
20260904032334 58 81 0.0 0.0 0.00 1.46 0.36 75 1010.5
20260904031818 58 75 0.0 0.0 0.00 1.46 0.36 75 1010.5
20260904031613 58 75 0.0 0.0 0.00 0.37 0.36 75 1009.8
20260904031326 58 106 0.0 0.0 0.00 1.46 0.36 75 1010.3
20260904030837 59 91 0.0 0.0 0.00 1.46 0.36 75 1010.3
20260904030325 59 96 0.0 0.0 0.00 1.46 0.36 74 1010.2
20260904025839 59 57 0.0 0.0 0.00 1.46 0.36 74 1010.2
20260904025322 59 66 0.0 4.0 0.00 1.46 0.36 73 1010.2
20260904024901 59 82 0.0 6.0 0.00 1.46 0.36 72 1010.2
20260904024633 59 73 2.0 6.0 0.00 0.37 0.36 72 1009.6
20260904024330 59 98 4.0 6.0 0.00 1.46 0.36 72 1010.2
20260904023820 60 97 3.0 7.0 0.00 1.46 0.36 70 1010.1
20260904023335 60 117 1.0 5.0 0.00 1.46 0.36 69 1010.1
20260904023104 60 84 0.0 1.0 0.00 0.37 0.36 68 1009.5
20260904022853 60 101 0.0 0.0 0.00 1.46 0.36 67 1010.1
20260904022318 61 96 0.0 0.0 0.00 1.46 0.36 66 1010.1
20260904021857 62 30 0.0 7.0 0.00 1.46 0.36 65 1010.0
20260904021556 62 40 0.0 7.0 0.00 0.37 0.36 66 1009.4
20260904021357 63 26 5.0 7.0 0.00 1.46 0.36 67 1009.9
20260904020824 63 27 1.0 8.0 0.00 1.46 0.36 63 1009.9
20260904020012 63 15 0.0 0.0 0.00 0.37 0.36 64 1009.2
20260904015836 63 23 0.0 0.0 0.00 1.46 0.36 63 1009.8
20260904015340 64 21 0.0 0.0 0.00 1.46 0.36 64 1009.8
20260904014840 64 321 0.0 1.0 0.00 1.46 0.36 64 1009.7
20260904014631 64 340 0.0 4.0 0.00 0.37 0.36 62 1009.0
20260904014322 64 20 0.0 4.0 0.00 1.46 0.36 60 1009.7
20260904013821 64 301 2.0 4.0 0.00 1.46 0.36 62 1009.7
20260904013354 65 246 0.0 0.0 0.00 1.46 0.36 63 1009.7
20260904013106 64 211 0.0 0.0 0.00 0.37 0.36 64 1009.1
20260904012844 65 278 0.0 0.0 0.00 1.46 0.36 61 1009.9
20260904012316 65 252 0.0 0.0 0.00 1.46 0.36 62 1009.9
20260904011822 65 242 0.0 0.0 0.00 1.46 0.36 63 1009.9
20260904011602 64 242 0.0 0.0 0.00 0.37 0.36 62 1009.2
20260904011339 65 236 0.0 0.0 0.00 1.46 0.36 62 1009.8
20260904010817 65 272 0.0 0.0 0.00 1.46 0.36 62 1009.8
20260904010019 64 246 0.0 0.0 0.00 0.37 0.36 66 1009.2
20260904005839 64 242 0.0 0.0 0.00 1.46 0.36 65 1009.8
20260904005317 64 245 0.0 0.0 0.00 1.46 0.36 65 1009.7
20260904004822 64 250 0.0 0.0 0.00 1.46 0.36 64 1009.7
20260904004559 64 264 0.0 0.0 0.00 0.37 0.36 64 1009.1
20260904004330 65 263 0.0 0.0 0.00 1.46 0.36 63 1009.7
20260904003820 65 239 0.0 0.0 0.00 1.46 0.36 62 1009.7
20260904003346 65 40 0.0 0.0 0.00 1.46 0.36 65 1009.7
20260904003051 63 40 0.0 0.0 0.00 0.37 0.36 66 1009.2
20260904002836 63 40 0.0 0.0 0.00 1.46 0.36 66 1009.8
20260904002337 64 40 0.0 0.0 0.00 1.46 0.36 64 1009.8
20260904001832 64 20 0.0 0.0 0.00 1.46 0.36 65 1009.8
20260904001557 63 20 0.0 0.0 0.00 0.37 0.36 65 1009.2
20260904000824 63 19 0.0 0.0 0.00 1.46 0.36 67 1009.9
20260904000318 63 354 0.0 0.0 0.00 1.46 0.36 66 1009.8
20260904000107 62 338 0.0 0.0 0.00 0.37 0.36 67 1009.3
20260903235849 62 340 0.0 0.0 0.00 1.46 0.36 67 1009.9
20260903235352 62 309 0.0 0.0 0.00 1.46 0.36 68 1009.8
20260903234823 62 291 0.0 0.0 0.00 1.46 0.36 68 1009.9
20260903234603 62 276 0.0 0.0 0.00 0.37 0.36 68 1009.3
20260903234331 62 269 0.0 0.0 0.00 1.46 0.36 69 1010.0
20260903233824 62 256 0.0 0.0 0.00 1.46 0.36 70 1010.0
20260903233325 61 315 0.0 0.0 0.00 1.46 0.36 70 1010.0
20260903233011 61 316 0.0 0.0 0.00 0.37 0.36 68 1009.5
20260903232835 61 288 0.0 0.0 0.00 1.46 0.36 69 1010.1
20260903232321 61 260 0.0 4.0 0.00 1.46 0.36 70 1010.0
20260903231819 61 278 1.0 4.0 0.00 1.46 0.36 71 1010.0
20260903231613 61 280 1.0 4.0 0.00 0.37 0.36 71 1009.4
20260903231337 61 258 0.0 5.0 0.00 1.46 0.36 70 1010.1
20260903230330 61 263 0.0 0.0 0.00 1.46 0.36 70 1010.1
20260903225823 61 271 0.0 2.0 0.00 1.46 0.36 69 1010.1
20260903225330 61 282 0.0 6.0 0.00 1.46 0.36 70 1010.1
20260903224819 61 224 0.0 6.0 0.00 1.46 0.36 71 1010.0
20260903224558 60 241 3.0 6.0 0.00 0.37 0.36 71 1009.4
20260903224344 61 260 0.0 0.0 0.00 1.46 0.36 70 1010.1
20260903223828 61 252 0.0 0.0 0.00 1.46 0.36 70 1010.0
20260903223325 61 239 0.0 0.0 0.00 1.46 0.36 69 1010.1
20260903223124 60 242 0.0 5.0 0.00 0.37 0.36 69 1009.4
20260903222830 61 224 0.0 7.0 0.00 1.46 0.36 72 1010.1
20260903222325 60 253 3.0 7.0 0.00 1.46 0.36 72 1010.2
20260903221834 60 267 1.0 6.0 0.00 1.46 0.36 71 1010.2
20260903221600 60 232 1.0 7.0 0.00 0.37 0.36 72 1009.6
20260903221318 60 278 1.0 7.0 0.00 1.46 0.36 74 1010.2
20260903220817 60 226 0.0 7.0 0.00 1.46 0.36 73 1010.2
20260903220328 60 208 3.0 7.0 0.00 1.46 0.36 75 1010.2
20260903220104 59 259 1.0 8.0 0.00 0.37 0.36 77 1009.5
20260903215855 60 215 3.0 9.0 0.00 1.46 0.36 74 1010.2
20260903215325 60 266 7.0 9.0 0.00 1.46 0.36 75 1010.2
20260903214836 60 239 2.0 9.0 0.00 1.46 0.36 76 1010.3
20260903214605 59 232 1.0 9.0 0.00 0.37 0.36 77 1009.5
20260903214320 60 248 7.0 9.0 0.00 1.46 0.36 78 1010.2
20260903213844 60 243 6.0 9.0 0.00 1.46 0.36 76 1010.2
20260903213327 60 243 6.0 10.0 0.00 1.46 0.36 74 1010.2
20260903213055 59 264 3.0 10.0 0.00 0.37 0.36 77 1009.6
20260903212827 60 214 8.0 10.0 0.00 1.46 0.36 79 1010.2
20260903212319 60 145 5.0 9.0 0.00 1.46 0.36 80 1010.4
20260903211836 60 225 6.0 10.0 0.00 1.46 0.36 81 1010.4
20260903211603 59 252 2.0 10.0 0.00 0.37 0.36 79 1009.8
20260903211325 59 274 7.0 10.0 0.00 1.46 0.36 78 1010.4
20260903210828 59 248 0.0 0.0 0.00 1.46 0.36 77 1010.5
20260903210332 59 281 0.0 0.0 0.00 1.46 0.36 78 1010.6
20260903205838 59 278 0.0 0.0 0.04 1.46 0.36 77 1010.6
20260903205337 58 269 0.0 0.0 0.04 1.46 0.36 78 1010.5
20260903204845 58 263 0.0 3.0 0.04 1.46 0.36 77 1010.5
20260903204335 57 266 0.0 6.0 0.04 1.46 0.36 80 1010.5
20260903203830 56 228 0.0 6.0 0.04 1.46 0.36 83 1010.5
20260903203337 56 191 0.0 8.0 0.08 1.46 0.36 87 1010.4
20260903203059 55 207 1.0 8.0 0.02 0.37 0.36 86 1009.7
20260903202907 55 203 2.0 8.0 0.08 1.46 0.36 88 1010.4
20260903202343 55 176 3.0 8.0 0.08 1.46 0.36 89 1010.5
20260903201850 54 188 2.0 8.0 0.08 1.46 0.36 92 1010.4
20260903201607 54 134 4.0 8.0 0.02 0.37 0.36 93 1009.7
20260903201324 54 151 3.0 8.0 0.08 1.46 0.36 94 1010.4
20260903200818 54 196 2.0 7.0 0.12 1.46 0.36 95 1010.4
20260903200322 54 205 2.0 7.0 0.12 1.46 0.36 95 1010.4
20260903200108 54 211 1.0 6.0 0.02 0.36 0.35 95 1009.6
20260903195826 55 156 0.0 1.0 0.08 1.42 0.35 95 1010.4
20260903195323 55 193 0.0 0.0 0.08 1.42 0.35 96 1010.3
20260903194817 56 16 0.0 0.0 0.08 1.42 0.35 96 1010.3
20260903194554 55 18 0.0 0.0 0.02 0.36 0.35 96 1009.5
20260903194327 55 18 0.0 0.0 0.12 1.42 0.35 96 1010.2
20260903193819 55 56 0.0 0.0 0.12 1.42 0.35 96 1010.2
20260903193318 55 79 0.0 0.0 0.08 1.38 0.34 96 1010.0
20260903193104 55 83 0.0 0.0 0.02 0.35 0.34 96 1009.2
20260903192822 55 74 0.0 0.0 0.08 1.38 0.34 95 1010.0
20260903192351 56 334 0.0 0.0 0.08 1.38 0.34 96 1009.9
20260903191833 56 262 0.0 0.0 0.08 1.38 0.34 96 1009.9
20260903191618 56 262 0.0 0.0 0.02 0.35 0.34 96 1009.1
20260903191321 56 262 0.0 0.0 0.08 1.38 0.34 96 1009.8
20260903190826 56 262 0.0 0.0 0.08 1.34 0.33 96 1009.8
20260903190010 56 203 0.0 0.0 0.02 0.34 0.33 96 1008.9
20260903185834 56 203 0.0 0.0 0.08 1.34 0.33 96 1009.7
20260903185318 56 138 0.0 0.0 0.08 1.34 0.33 96 1009.7
20260903184822 57 162 0.0 0.0 0.08 1.34 0.33 96 1009.7
20260903184608 56 162 0.0 0.0 0.01 0.33 0.32 96 1008.8
20260903184324 56 162 0.0 0.0 0.04 1.30 0.32 96 1009.6
20260903183833 56 169 0.0 0.0 0.08 1.30 0.32 96 1009.6
20260903183323 56 201 0.0 0.0 0.08 1.30 0.32 96 1009.6
20260903182825 56 163 0.0 0.0 0.08 1.30 0.32 96 1009.6
20260903182325 55 169 0.0 0.0 0.08 1.30 0.32 96 1009.5
20260903181825 55 260 0.0 0.0 0.08 1.30 0.32 96 1009.5
20260903181558 55 293 0.0 0.0 0.02 0.33 0.32 96 1008.6
20260903181347 55 53 0.0 0.0 0.08 1.30 0.32 96 1009.4
20260903180824 55 86 0.0 0.0 0.04 1.26 0.31 96 1009.4
20260903180321 55 57 0.0 0.0 0.04 1.26 0.31 96 1009.3
20260903180116 55 57 0.0 0.0 0.01 0.32 0.31 96 1008.4
20260903175820 55 46 0.0 0.0 0.04 1.26 0.31 96 1009.2
20260903175355 55 40 0.0 0.0 0.04 1.26 0.31 96 1009.2
20260903174825 55 68 0.0 0.0 0.04 1.26 0.31 96 1009.1
20260903174556 54 37 0.0 0.0 0.01 0.32 0.31 96 1008.3
20260903174325 55 37 0.0 0.0 0.04 1.26 0.31 96 1009.2
20260903173842 54 57 0.0 0.0 0.04 1.22 0.30 96 1009.1
20260903173334 55 87 0.0 0.0 0.04 1.22 0.30 96 1009.1
20260903173116 54 91 0.0 0.0 0.01 0.31 0.30 96 1008.3
20260903172824 55 91 0.0 0.0 0.04 1.22 0.30 96 1009.1